TimeEDT,TemperatureF,Dew PointF,Humidity,Sea Level PressureIn,VisibilityMPH,Wind Direction,Wind SpeedMPH,Gust SpeedMPH,PrecipitationIn,Events,Conditions,WindDirDegrees,DateUTC
12:53 AM,72.0,60.1,66,30.13,10.0,Variable,4.6,-,N/A,,Clear,0,2011-10-05 04:53:00
1:53 AM,71.1,59.0,66,30.12,10.0,NE,5.8,-,N/A,,Clear,40,2011-10-05 05:53:00
2:53 AM,70.0,59.0,68,30.11,10.0,NE,3.5,-,N/A,,Clear,50,2011-10-05 06:53:00
3:53 AM,69.8,59.0,68,30.10,10.0,NE,4.6,-,N/A,,Clear,40,2011-10-05 07:53:00
4:53 AM,69.1,59.0,70,30.10,10.0,NE,3.5,-,N/A,,Clear,40,2011-10-05 08:53:00
5:53 AM,68.0,59.0,73,30.10,10.0,NE,3.5,-,N/A,,Clear,50,2011-10-05 09:53:00
6:53 AM,66.9,60.1,79,30.12,10.0,NNE,6.9,-,N/A,,Partly Cloudy,30,2011-10-05 10:53:00
7:53 AM,66.2,60.8,83,30.13,10.0,NE,5.8,-,N/A,,Partly Cloudy,40,2011-10-05 11:53:00
8:53 AM,71.1,62.1,73,30.14,10.0,NNE,6.9,-,N/A,,Partly Cloudy,30,2011-10-05 12:53:00
9:53 AM,75.9,62.1,62,30.14,10.0,NE,6.9,-,N/A,,Partly Cloudy,50,2011-10-05 13:53:00
10:53 AM,80.1,62.1,54,30.14,10.0,NE,9.2,-,N/A,,Partly Cloudy,40,2011-10-05 14:53:00
11:53 AM,82.0,61.0,49,30.13,10.0,ENE,8.1,18.4,N/A,,Scattered Clouds,60,2011-10-05 15:53:00
12:53 PM,82.9,62.1,49,30.11,10.0,East,10.4,17.3,N/A,,Scattered Clouds,90,2011-10-05 16:53:00
1:53 PM,84.9,63.0,48,30.09,10.0,Variable,3.5,18.4,N/A,,Scattered Clouds,0,2011-10-05 17:53:00
2:53 PM,86.0,62.6,45,30.07,10.0,East,9.2,-,N/A,,Mostly Cloudy,90,2011-10-05 18:53:00
3:53 PM,84.9,62.1,46,30.05,10.0,East,6.9,17.3,N/A,,Mostly Cloudy,80,2011-10-05 19:53:00
4:53 PM,84.0,60.1,44,30.05,10.0,NE,9.2,16.1,N/A,,Mostly Cloudy,40,2011-10-05 20:53:00
5:53 PM,84.9,57.9,40,30.04,10.0,Variable,6.9,-,N/A,,Mostly Cloudy,0,2011-10-05 21:53:00
6:53 PM,82.4,57.2,42,30.04,10.0,ENE,5.8,-,N/A,,Partly Cloudy,60,2011-10-05 22:53:00
7:53 PM,80.1,57.9,47,30.06,10.0,ENE,4.6,-,N/A,,Partly Cloudy,60,2011-10-05 23:53:00
8:53 PM,78.1,60.1,54,30.08,10.0,ENE,3.5,-,N/A,,Partly Cloudy,60,2011-10-06 00:53:00
9:53 PM,75.2,62.6,65,30.09,10.0,NE,8.1,18.4,N/A,,Clear,50,2011-10-06 01:53:00
10:53 PM,73.9,63.0,68,30.10,10.0,NE,8.1,-,N/A,,Clear,50,2011-10-06 02:53:00
11:53 PM,73.0,63.0,71,30.10,10.0,NE,9.2,-,N/A,,Clear,40,2011-10-06 03:53:00